Dewpoint
54 55 57 59 61 62 62 63 65 67 69 68 67 67 67 68 69 70 70 71 70 71 69 70 70 70 70 69 70 69 69 68 70 68 67 68 68 65 68 69 68 68 71
54 57 59 61 61 62 63 64 65 69 69 68 68 69 68 67 67 70 70 70 70 71 72 70 70 70 70 70 69 69 69 69 69 66 67 63 65 66 65 69 67 68 68
54 55 60 59 61 62 62 65 65 67 69 69 70 70 70 70 70 67 66 65 65 69 71 71 70 69 71 70 70 70 69 67 67 69 66 62 60 63 66 62 67 69 67
55 54 57 60 62 61 62 66 66 66 68 68 68 67 65 65 68 68 64 66 67 71 73 72 72 72 72 71 71 71 70 68 66 68 69 68 65 62 59 65 65 66 66
56 56 55 59 62 63 65 68 67 67 68 69 68 68 65 66 69 68 67 69 69 72 71 70 71 71 70 71 71 70 69 69 68 68 68 69 68 68 66 62 62 65 66
57 57 59 60 62 66 67 68 68 67 67 69 70 69 67 69 69 68 68 70 71 71 70 70 70 68 66 67 67 66 66 66 70 68 68 66 66 63 66 65 64 64 62
57 57 59 61 63 66 68 68 67 67 68 69 69 69 69 68 68 69 69 69 69 70 69 68 65 64 64 64 64 65 63 63 62 62 63 64 63 62 61 64 63 64 57
56 57 59 62 63 66 68 68 69 68 69 69 69 70 69 69 70 70 69 69 69 70 68 63 62 63 64 63 65 64 64 63 63 63 63 62 63 62 61 60 59 55 56
56 57 59 62 63 67 68 68 68 69 70 70 69 69 69 71 70 71 70 69 68 65 62 61 63 64 62 63 63 61 62 61 62 61 61 61 62 62 62 61 60 57 53
57 59 60 61 64 67 68 68 68 69 70 70 70 71 71 71 70 69 63 64 63 62 61 63 62 62 62 62 61 60 62 59 61 62 62 63 64 64 64 64 62 60 57
58 60 61 61 63 66 68 68 69 69 69 70 70 71 72 70 65 64 62 61 62 61 62 62 62 63 62 62 61 61 61 60 60 63 62 62 63 62 62 62 63 62 62
59 60 61 61 62 65 68 68 69 69 69 69 70 72 71 68 64 61 62 62 61 62 61 62 61 62 61 60 61 60 60 59 61 61 61 62 62 60 60 59 61 59 62
58 60 61 61 61 65 67 68 69 69 69 70 71 71 69 65 63 61 61 60 61 61 63 62 62 62 60 59 61 59 58 57 58 60 61 62 60 59 57 57 59 58 59
57 59 60 60 60 64 66 67 68 68 69 70 71 70 66 63 61 60 61 60 60 61 61 62 61 61 60 60 59 60 59 57 56 55 59 60 60 59 56 57 58 58 57
56 58 59 60 60 64 66 67 67 68 69 70 69 68 64 61 61 60 60 61 61 61 61 61 61 60 58 60 58 56 57 57 58 55 54 52 59 61 58 58 58 58 57
55 57 58 59 60 62 66 67 67 68 69 68 68 65 62 61 60 60 60 60 61 61 60 60 60 59 56 56 56 55 54 56 57 56 54 54 59 59 60 58 56 60 59
55 56 57 58 60 61 64 66 67 69 69 67 66 64 62 60 60 59 60 60 61 60 60 60 61 60 55 57 56 57 57 56 55 57 56 52 59 58 57 55 54 55 58
56 56 57 58 59 61 63 66 68 68 68 67 65 63 62 60 60 59 59 60 61 60 60 60 60 59 58 57 57 57 57 57 56 56 56 55 53 55 54 50 49 52 56
66 64 59 59 63 64 64 62 61 60 60 60 65 63 62 61 61 60 60 61 61 60 61 60 59 57 58 59 57 57 57 57 55 51 50 55 53 55 52 50 48 48 49
64 65 64 65 63 63 62 61 59 61 60 60 61 65 63 62 60 60 60 61 61 60 60 60 60 59 59 58 58 57 57 55 52 50 48 54 52 55 51 49 48 45 44
63 64 63 63 63 62 62 62 59 55 59 63 64 65 64 63 62 62 62 61 60 60 59 59 58 58 58 58 58 58 57 53 49 46 43 53 54 52 51 50 49 47 49
63 63 62 63 64 63 64 61 58 57 58 61 66 65 65 64 63 62 62 61 60 60 59 58 57 58 58 59 58 57 57 52 47 38 41 53 52 51 49 49 49 49 51
61 62 62 61 62 61 59 57 58 61 60 66 66 65 65 65 64 62 61 60 59 58 57 57 57 57 58 59 58 57 56 52 47 43 42 45 46 46 45 44 47 49 49
62 61 61 60 60 60 58 58 60 63 65 65 64 65 64 64 63 62 61 60 60 59 59 58 57 56 57 57 58 57 55 53 50 48 46 45 46 47 49 49 50 50 50
62 62 61 60 60 60 60 60 61 63 63 65 63 64 64 63 63 62 62 61 60 60 59 58 58 54 53 55 58 57 54 52 49 45 46 47 46 43 42 45 47 49 50
62 62 62 62 63 62 62 62 62 64 64 62 63 63 62 63 63 62 61 62 61 60 59 55 55 52 53 50 54 55 54 52 49 48 46 43 42 44 44 44 44 46 50
Wind_Speed
18 21 22 23 21 20 20 21 21 18 18 15 10 6 9 10 7 5 10 9 7 4 5 3 1 1 3 4 3 2 4 5 4 5 5 1 2 5 6 5 3 2 5
16 20 24 25 29 27 23 20 22 22 20 17 12 5 8 6 9 8 6 3 2 0 2 3 4 4 5 2 3 4 3 3 2 3 1 3 1 1 4 4 6 5 7
26 22 24 27 24 25 24 23 24 23 19 14 8 5 6 6 4 6 5 5 2 4 4 2 1 2 1 2 3 3 6 4 2 2 1 2 2 4 2 4 7 9 9
25 23 21 25 24 24 21 19 21 23 16 13 11 13 12 10 11 10 6 6 2 3 8 9 6 8 4 4 3 5 1 4 1 2 4 2 2 1 5 2 1 8 13
25 25 21 23 25 22 20 21 21 18 14 12 12 11 10 7 7 7 5 2 1 4 9 8 8 9 7 7 7 5 5 4 3 3 2 2 1 1 1 5 5 6 7
26 25 20 20 22 19 21 21 21 18 16 15 10 15 13 10 12 8 6 6 7 6 8 9 9 9 7 7 5 5 5 3 3 4 4 4 3 4 2 4 8 7 6
27 27 24 23 22 23 21 20 21 18 17 17 14 12 13 12 13 12 10 9 7 5 6 8 9 7 7 7 7 6 8 9 8 5 4 5 5 2 3 1 3 3 4
28 27 25 24 24 23 23 21 21 21 18 18 16 13 12 11 10 11 9 9 9 10 7 9 10 9 8 8 7 7 7 7 10 9 7 6 5 3 3 2 1 0 4
26 27 23 24 24 24 24 24 23 21 21 20 18 15 13 13 14 11 10 10 13 11 11 10 11 9 7 7 6 6 6 5 4 5 6 5 4 5 3 4 2 2 1
24 22 24 24 23 25 23 22 22 23 19 18 16 15 15 15 14 15 15 14 12 11 11 11 11 8 7 6 5 4 3 3 3 3 6 7 5 6 7 6 4 2 3
24 24 23 22 22 21 21 21 19 20 20 17 16 14 14 17 16 18 15 14 12 11 10 10 8 9 8 5 5 4 4 4 4 5 5 5 4 7 9 9 8 10 4
24 24 24 22 20 22 20 20 19 18 18 15 14 15 15 16 16 14 13 12 12 11 11 10 8 9 7 5 5 5 5 8 5 3 4 5 4 7 8 8 9 10 8
21 21 22 24 22 21 21 21 19 18 16 13 14 14 15 16 15 14 12 10 10 9 8 8 8 9 6 5 5 4 5 6 8 5 3 2 3 4 6 6 7 7 7
23 24 24 26 25 25 26 24 23 22 22 21 21 22 21 19 16 13 11 9 7 8 8 7 6 6 5 6 6 5 2 3 5 5 5 3 1 1 4 6 6 5 6
26 27 28 27 26 25 24 25 25 23 22 22 23 25 22 20 19 16 11 8 6 5 6 6 5 4 3 5 7 5 3 2 1 2 2 4 2 6 4 2 3 3 4
27 27 28 26 27 30 28 27 24 24 24 27 27 24 24 23 20 18 16 11 8 7 6 5 5 5 5 8 6 3 1 0 2 0 2 2 6 5 3 2 4 3 4
27 28 30 32 32 33 33 32 29 27 26 26 24 24 27 26 23 21 17 15 13 11 9 6 5 5 9 9 7 4 1 3 2 3 4 4 3 6 3 2 5 4 5
14 18 23 26 30 23 10 7 19 14 4 28 25 25 27 25 24 22 18 13 11 11 8 8 7 6 7 10 7 5 2 4 4 4 8 9 8 6 4 1 6 6 6
11 10 21 13 11 17 22 21 19 19 13 33 16 27 27 22 20 20 17 10 9 8 10 9 9 8 6 11 11 7 3 4 5 4 10 4 7 8 5 1 5 8 9
19 16 7 26 27 19 21 17 13 16 37 42 19 21 21 22 23 22 18 12 8 9 9 9 10 9 10 12 12 8 6 6 5 1 6 8 8 11 5 1 3 8 8
20 19 19 26 24 17 20 13 22 18 10 38 35 23 20 17 15 15 10 12 9 7 6 8 5 8 10 11 12 11 8 7 5 3 3 2 7 6 4 3 4 7 5
16 13 15 12 8 10 9 16 16 14 18 16 16 23 16 13 14 14 10 10 10 9 8 6 8 9 10 12 15 15 13 7 7 6 5 5 8 7 7 8 11 11 9
15 10 11 9 7 7 21 26 21 11 10 19 14 15 15 16 15 15 11 9 8 8 8 9 11 11 10 11 16 18 15 11 10 8 8 10 11 11 12 11 12 11 8
14 12 16 16 14 11 12 12 7 0 4 11 16 16 16 14 12 11 11 9 10 10 11 11 12 12 14 13 12 15 14 13 12 13 10 8 9 10 12 9 9 10 11
11 13 16 15 13 10 8 6 4 4 5 6 12 11 12 12 12 9 12 14 15 15 15 16 13 9 7 9 12 15 16 17 16 9 8 8 7 11 12 10 11 10 9
12 11 9 9 4 1 3 3 6 5 5 6 7 7 7 7 11 13 11 12 17 17 19 9 11 12 11 7 10 16 18 17 10 5 10 12 11 13 14 14 15 14 13
Wind_Direction
175 169 157 161 160 167 170 184 174 166 162 161 170 171 199 201 231 223 216 232 218 211 221 237 297 50 264 275 277 284 269 290 297 286 300 295 60 114 147 191 171 205 220
173 163 154 159 168 170 172 166 170 163 171 167 177 189 182 191 196 213 200 210 234 190 158 265 239 245 259 247 257 240 240 246 207 252 286 311 345 265 165 179 195 220 211
191 177 168 173 171 177 176 168 172 171 164 171 157 123 101 131 157 202 206 192 178 349 295 237 18 315 294 259 286 246 218 225 246 228 227 343 338 322 267 142 189 202 235
200 192 175 183 182 185 182 180 173 177 171 162 159 169 187 172 206 200 205 201 128 338 96 110 102 74 67 44 38 10 159 139 131 345 45 81 151 36 326 30 202 221 248
192 204 190 187 186 180 179 177 175 176 180 175 170 173 175 201 182 199 209 141 93 121 104 98 82 84 67 62 60 49 65 70 109 73 62 64 15 122 222 303 323 305 294
188 195 192 176 175 171 172 169 175 181 180 178 168 169 170 162 169 176 175 152 148 141 114 102 98 83 65 52 37 33 50 56 104 74 67 65 33 340 269 267 301 306 312
179 184 177 174 164 162 167 169 175 180 180 179 178 170 168 167 170 178 174 167 158 146 119 120 103 86 73 53 48 66 75 63 80 79 94 93 86 22 12 321 310 295 321
177 179 174 170 168 167 168 170 177 180 183 179 179 173 168 169 172 173 171 168 157 154 138 122 102 92 79 59 68 64 64 67 83 77 73 96 86 45 21 345 76 41 4
177 181 171 168 168 168 173 175 179 183 182 178 182 186 182 180 173 162 151 150 145 143 145 127 118 113 93 90 89 66 55 65 64 67 58 56 60 44 24 7 15 157 108
174 171 171 167 170 172 174 176 184 186 187 186 184 185 177 165 155 146 145 147 144 142 137 134 137 133 119 102 85 79 53 41 52 67 63 60 66 67 43 53 78 92 149
165 165 168 170 170 170 172 179 182 184 191 191 191 182 168 154 148 150 153 150 148 148 142 152 151 147 146 136 90 97 55 36 21 84 104 57 60 64 53 44 51 54 79
167 164 165 168 168 171 174 180 178 184 192 198 193 178 163 156 153 150 153 154 153 163 160 155 153 155 154 129 116 110 92 75 107 65 89 83 67 53 43 41 41 36 29
168 165 163 171 175 175 176 175 180 187 191 187 179 169 167 162 161 154 155 161 154 164 168 160 158 165 171 153 151 132 118 107 90 91 97 118 89 49 33 43 40 20 20
174 168 173 181 181 180 177 178 182 186 188 183 175 176 176 171 165 159 162 160 160 168 180 185 186 191 189 187 170 136 127 95 90 107 95 96 60 54 66 63 44 33 30
174 182 186 187 186 184 184 182 187 183 182 181 177 176 171 164 163 160 160 161 163 154 169 154 174 153 154 177 159 136 122 89 62 150 109 49 5 202 150 79 350 3 360
187 194 194 189 188 190 187 189 186 185 173 177 178 165 162 165 165 160 157 161 165 167 165 169 179 161 158 153 161 124 130 131 80 91 252 114 106 142 158 105 11 285 305
204 198 199 196 196 194 190 189 187 177 176 174 171 162 166 168 166 158 161 168 176 180 187 190 174 174 181 180 171 158 262 308 295 283 269 274 147 151 171 336 346 342 348
239 223 215 212 208 199 188 66 29 19 187 175 168 169 167 170 164 159 167 175 179 187 194 207 194 183 197 197 194 185 231 289 302 299 280 255 223 196 182 20 2 351 352
353 298 236 225 141 135 105 91 61 40 346 353 279 172 171 163 158 157 164 170 182 190 201 213 200 198 222 200 200 196 234 289 308 346 6 212 213 207 177 61 359 338 318
26 355 137 94 98 77 69 50 35 6 350 310 282 243 156 159 164 161 168 168 182 208 215 222 220 208 210 204 211 200 216 254 260 298 356 7 199 189 185 320 335 322 315
55 61 91 102 106 111 116 82 6 18 10 316 212 174 146 154 160 162 168 159 174 183 201 214 200 200 212 214 215 210 234 246 255 269 284 214 163 188 224 251 276 282 289
66 80 93 99 110 146 142 117 161 148 83 39 43 110 139 155 162 158 162 152 174 198 214 230 243 245 234 229 224 219 216 232 256 262 244 225 212 230 263 279 275 276 289
85 82 88 99 125 155 135 140 153 188 134 128 125 136 157 158 153 148 153 168 192 215 226 236 250 262 262 250 237 227 220 215 242 260 248 248 264 277 293 276 279 289 281
80 88 98 111 123 144 126 141 184 251 73 140 154 163 145 141 152 164 169 187 210 223 238 247 258 276 275 265 237 225 222 223 235 255 266 271 274 273 282 296 282 270 261
85 96 108 116 126 155 178 150 202 311 135 147 157 166 158 163 170 184 194 207 222 218 232 241 245 223 242 245 224 210 215 221 230 240 276 285 284 290 296 300 299 299 285
131 110 81 85 87 316 306 174 187 245 202 205 173 166 177 181 191 205 235 248 246 246 240 243 208 227 239 242 221 222 224 226 210 230 256 270 282 283 291 300 302 304 303